Bodo Airport


Codes: ENBO/BOO
Name: Bodo Airport
City: Bodo
Country: Norway
Elevation: 42 ft.
Website:
Wikipedia:

Photos at Bodo Airport


   Photos courtesy of SpottingLog. You can add your own sightings and photos by signing up for a free trial today.



MM7307, 03-Nov-2018
© Igor PISSAREV

121, 03-Nov-2018
© Igor PISSAREV

188780, 03-Nov-2018
© Igor PISSAREV

188767, 03-Nov-2018
© Igor PISSAREV

188279, 03-Nov-2018
© Igor PISSAREV

LN-OLO, 03-Nov-2018
© Igor PISSAREV

MM7067, 03-Nov-2018
© Igor PISSAREV

LN-WIU, 03-Nov-2018
© Igor PISSAREV

MM62228, 03-Nov-2018
© Igor PISSAREV

115-KS, 03-Nov-2018
© Igor PISSAREV

115-KR, 03-Nov-2018
© Igor PISSAREV

285, 03-Nov-2018
© Igor PISSAREV


Weather at Bodo Airport


Time (UTC)DescriptionTempratureWindCloud coverageVisibilityPressureHumidity
21-Jun-2024 12:00Light Rain11°C18 mph, W75%10000m1011hPa90%
21-Jun-2024 15:00Light Rain11°C18 mph, SW76%10000m1012hPa85%
21-Jun-2024 18:00Broken Clouds11°C9 mph, W70%10000m1013hPa82%
21-Jun-2024 21:00Light Rain11°C4 mph, SE100%10000m1015hPa78%
22-Jun-2024 00:00Overcast Clouds11°C7 mph, SE98%10000m1015hPa76%
22-Jun-2024 03:00Overcast Clouds11°C7 mph, E100%10000m1014hPa73%
22-Jun-2024 06:00Broken Clouds12°C7 mph, E72%10000m1013hPa70%
22-Jun-2024 09:00Broken Clouds14°C7 mph, NE81%10000m1013hPa64%
22-Jun-2024 12:00Broken Clouds14°C11 mph, NE52%10000m1012hPa65%
22-Jun-2024 15:00Scattered Clouds15°C9 mph, N41%10000m1010hPa67%
22-Jun-2024 18:00Broken Clouds15°C4 mph, N53%10000m1010hPa68%
22-Jun-2024 21:00Broken Clouds15°C7 mph, E66%10000m1009hPa66%
23-Jun-2024 00:00Broken Clouds15°C9 mph, E73%10000m1008hPa64%
23-Jun-2024 03:00Overcast Clouds15°C11 mph, SE90%10000m1007hPa69%
23-Jun-2024 06:00Overcast Clouds13°C16 mph, SW95%10000m1008hPa87%
23-Jun-2024 09:00Light Rain12°C16 mph, SW100%2291m1008hPa98%
23-Jun-2024 12:00Moderate Rain12°C4 mph, SW100%10000m1008hPa96%
23-Jun-2024 15:00Light Rain12°C7 mph, S100%10000m1008hPa94%
23-Jun-2024 18:00Light Rain12°C13 mph, W100%10000m1008hPa93%
23-Jun-2024 21:00Light Rain12°C25 mph, SW65%10000m1010hPa78%
24-Jun-2024 00:00Scattered Clouds11°C20 mph, SW45%10000m1011hPa75%
24-Jun-2024 03:00Light Rain11°C11 mph, S98%10000m1012hPa79%
24-Jun-2024 06:00Light Rain11°C22 mph, SW99%10000m1013hPa83%
24-Jun-2024 09:00Light Rain12°C25 mph, SW80%10000m1015hPa79%
24-Jun-2024 12:00Light Rain12°C27 mph, SW89%10000m1016hPa79%
24-Jun-2024 15:00Overcast Clouds12°C27 mph, SW100%10000m1017hPa80%
24-Jun-2024 18:00Light Rain11°C9 mph, SW100%10000m1017hPa82%
24-Jun-2024 21:00Light Rain12°C9 mph, SE100%10000m1016hPa82%
25-Jun-2024 00:00Light Rain12°C13 mph, SE100%10000m1015hPa78%
25-Jun-2024 03:00Light Rain13°C9 mph, SE100%10000m1015hPa78%
25-Jun-2024 06:00Light Rain13°C11 mph, SE100%10000m1016hPa74%
25-Jun-2024 09:00Overcast Clouds15°C2 mph, SE85%10000m1016hPa71%
25-Jun-2024 12:00Broken Clouds14°C22 mph, SW57%10000m1017hPa72%
25-Jun-2024 15:00Overcast Clouds14°C13 mph, SW86%10000m1017hPa81%
25-Jun-2024 18:00Light Rain14°C4 mph, S93%10000m1018hPa86%
25-Jun-2024 21:00Light Rain13°C4 mph, SW100%10000m1019hPa90%
26-Jun-2024 00:00Light Rain12°C11 mph, SW100%2643m1019hPa97%
26-Jun-2024 03:00Light Rain12°C2 mph, SE100%10000m1020hPa97%
26-Jun-2024 06:00Light Rain13°C4 mph, E100%10000m1020hPa91%
26-Jun-2024 09:00Broken Clouds15°C7 mph, NE79%10000m1020hPa85%